York, NE

3:28 PM CDT on October 21, 2017 (GMT -0500)
York Municipal

Weather History for KJYR - March, 2012

Change the Weather History Date:

Tuesday, March 6, 2012

  Actual Average Record
Temperature  
Mean Temperature 53 °F -  
Max Temperature 69 °F 48 °F 83 °F (1972)
Min Temperature 37 °F 23 °F -5 °F (1960)
Degree Days  
Heating Degree Days 12    
Growing Degree Days 3 (Base 50)    
Moisture  
Dew Point 36 °F    
Average Humidity 48    
Maximum Humidity 77    
Minimum Humidity 26    
Precipitation  
Precipitation 0.00 in - - ()
Sea Level Pressure  
Sea Level Pressure 29.64 in    
Wind  
Wind Speed 16 mph (SSW)    
Max Wind Speed 26 mph    
Max Gust Speed 33 mph    
Visibility 10 miles    
Events      
Averages and records for this station are not official NWS values.
T = Trace of Precipitation, MM = Missing Value Source: NWS Daily Summary

Daily Weather History Graph

Daily Weather History Graph

Search for Another Location

Airport or City:

Trip Planner

Search our weather history database for the weather conditions in past years. The results will help you decide how hot, cold, wet, or windy it might be!

Date:

Astronomy

Mar. 06, 2012 Rise Set
Actual Time 6:55 AM CST 6:27 PM CST
Civil Twilight 6:28 AM CST 6:55 PM CST
Nautical Twilight 5:56 AM CST 7:27 PM CST
Astronomical Twilight 5:24 AM CST 7:59 PM CST
Moon 4:55 PM CST (3/6) 5:32 AM CST (3/6)
Length of Visible Light 12h 26m
Length of Day
11h 31m
Waxing Gibbous, 96% of the Moon is Illuminated
Mar 6
Waxing Gibbous
Mar 8
Full
Mar 14
Last Quarter
Mar 22
New
Mar 30
First Quarter

Hourly Weather History & Observations

Time (CST) Temp. Windchill Dew Point Humidity Pressure Visibility Wind Dir Wind Speed Gust Speed Precip Events Conditions
12:15 AM 53.6 °F - 32.0 °F 44% 29.73 in 10.0 mi SSW 18.4 mph 25.3 mph N/A   Clear
12:35 AM 53.6 °F - 32.0 °F 44% 29.73 in 10.0 mi SSW 17.3 mph 24.2 mph N/A   Clear
12:55 AM 51.8 °F - 32.0 °F 47% 29.72 in 10.0 mi SSW 15.0 mph - N/A   Clear
1:15 AM 51.8 °F - 32.0 °F 47% 29.73 in 10.0 mi SSW 16.1 mph 21.9 mph N/A   Clear
1:35 AM 50.0 °F - 32.0 °F 50% 29.73 in 10.0 mi SSW 13.8 mph - N/A   Clear
1:55 AM 48.2 °F - 32.0 °F 54% 29.73 in 10.0 mi SSW 12.7 mph - N/A   Clear
2:15 AM 48.2 °F - 32.0 °F 54% 29.73 in 10.0 mi SSW 11.5 mph - N/A   Clear
2:35 AM 46.4 °F 41.5 °F 32.0 °F 57% 29.72 in 10.0 mi SSW 10.4 mph - N/A   Clear
2:55 AM 46.4 °F 41.1 °F 32.0 °F 57% 29.71 in 10.0 mi SSW 11.5 mph - N/A   Clear
3:15 AM 44.6 °F 38.8 °F 32.0 °F 61% 29.71 in 10.0 mi SW 11.5 mph - N/A   Clear
3:35 AM 44.6 °F 39.2 °F 30.2 °F 57% 29.70 in 10.0 mi SSW 10.4 mph - N/A   Clear
3:55 AM 42.8 °F 37.5 °F 30.2 °F 61% 29.70 in 10.0 mi SSW 9.2 mph - N/A   Clear
4:15 AM 41.0 °F 34.7 °F 30.2 °F 65% 29.69 in 10.0 mi SSW 10.4 mph - N/A   Clear
4:35 AM 42.8 °F 36.6 °F 30.2 °F 61% 29.69 in 10.0 mi SSW 11.5 mph - N/A   Clear
4:55 AM 42.8 °F 37.0 °F 30.2 °F 61% 29.69 in 10.0 mi SSW 10.4 mph - N/A   Clear
5:15 AM 41.0 °F 34.7 °F 28.4 °F 61% 29.69 in 10.0 mi SSW 10.4 mph - N/A   Clear
5:35 AM 41.0 °F 34.7 °F 28.4 °F 61% 29.69 in 10.0 mi SSW 10.4 mph - N/A   Clear
6:55 AM 37.4 °F 30.3 °F 28.4 °F 70% 29.69 in 10.0 mi SSW 10.4 mph - N/A   Clear
7:15 AM 39.2 °F 32.0 °F 28.4 °F 65% 29.69 in 10.0 mi SSW 11.5 mph - N/A   Clear
7:35 AM 41.0 °F 33.9 °F 30.2 °F 65% 29.69 in 10.0 mi SSW 12.7 mph - N/A   Clear
7:55 AM 44.6 °F 38.1 °F 32.0 °F 61% 29.70 in 10.0 mi SSW 13.8 mph - N/A   Clear
8:15 AM 46.4 °F 40.7 °F 32.0 °F 57% 29.70 in 10.0 mi SSW 12.7 mph - N/A   Clear
8:35 AM 50.0 °F - 32.0 °F 50% 29.69 in 10.0 mi SSW 15.0 mph 18.4 mph N/A   Clear
8:55 AM 53.6 °F - 32.0 °F 44% 29.69 in 10.0 mi SSW 12.7 mph - N/A   Clear
9:15 AM 55.4 °F - 32.0 °F 41% 29.69 in 10.0 mi SSW 16.1 mph - N/A   Clear
9:35 AM 57.2 °F - 33.8 °F 41% 29.69 in 10.0 mi SSW 17.3 mph 21.9 mph N/A   Clear
9:55 AM 59.0 °F - 33.8 °F 39% 29.69 in 10.0 mi SSW 18.4 mph - N/A   Clear
10:15 AM 60.8 °F - 33.8 °F 36% 29.68 in 10.0 mi SSW 15.0 mph - N/A   Clear
10:35 AM 62.6 °F - 33.8 °F 34% 29.68 in 10.0 mi South 17.3 mph - N/A   Clear
10:55 AM 62.6 °F - 33.8 °F 34% 29.68 in 10.0 mi SSW 16.1 mph - N/A   Clear
11:15 AM 60.8 °F - 32.0 °F 34% 29.67 in 10.0 mi South 18.4 mph - N/A   Clear
11:35 AM 60.8 °F - 32.0 °F 34% 29.67 in 9.0 mi SSW 15.0 mph - N/A   Clear
11:55 AM 64.4 °F - 33.8 °F 32% 29.66 in 10.0 mi South 15.0 mph - N/A   Clear
12:15 PM 68.0 °F - 32.0 °F 26% 29.64 in 10.0 mi South 17.3 mph - N/A   Clear
12:35 PM 68.0 °F - 32.0 °F 26% 29.63 in 9.0 mi South 17.3 mph - N/A   Clear
12:55 PM 68.0 °F - 33.8 °F 28% 29.62 in 10.0 mi South 18.4 mph 21.9 mph N/A   Clear
1:35 PM 68.0 °F - 32.0 °F 26% 29.62 in 10.0 mi South 21.9 mph 26.5 mph N/A   Clear
1:55 PM 66.2 °F - 33.8 °F 30% 29.61 in 10.0 mi South 19.6 mph 26.5 mph N/A   Clear
2:15 PM 66.2 °F - 35.6 °F 32% 29.60 in 10.0 mi South 19.6 mph 25.3 mph N/A   Clear
2:35 PM 66.2 °F - 35.6 °F 32% 29.60 in 10.0 mi South 19.6 mph 25.3 mph N/A   Clear
2:55 PM 66.2 °F - 35.6 °F 32% 29.59 in 10.0 mi South 20.7 mph 25.3 mph N/A   Clear
3:15 PM 68.0 °F - 35.6 °F 30% 29.58 in 10.0 mi South 17.3 mph - N/A   Clear
3:35 PM 69.8 °F - 35.6 °F 28% 29.58 in 10.0 mi South 16.1 mph - N/A   Clear
3:55 PM 68.0 °F - 33.8 °F 28% 29.58 in 10.0 mi South 19.6 mph 25.3 mph N/A   Clear
4:15 PM 69.8 °F - 37.4 °F 31% 29.58 in 10.0 mi South 18.4 mph 26.5 mph N/A   Clear
4:35 PM 69.8 °F - 37.4 °F 31% 29.57 in 10.0 mi South 16.1 mph 23.0 mph N/A   Clear
4:55 PM 69.8 °F - 35.6 °F 28% 29.57 in 10.0 mi South 21.9 mph 27.6 mph N/A   Clear
5:15 PM 68.0 °F - 37.4 °F 33% 29.57 in 10.0 mi South 18.4 mph 21.9 mph N/A   Clear
5:35 PM 68.0 °F - 37.4 °F 33% 29.56 in 10.0 mi South 17.3 mph 21.9 mph N/A   Clear
5:55 PM 66.2 °F - 37.4 °F 35% 29.57 in 10.0 mi South 17.3 mph 23.0 mph N/A   Clear
6:55 PM 62.6 °F - 41.0 °F 45% 29.57 in 10.0 mi South 17.3 mph - N/A   Clear
7:35 PM 62.6 °F - 44.6 °F 52% 29.57 in 10.0 mi South 16.1 mph 23.0 mph N/A   Clear
8:15 PM 60.8 °F - 48.2 °F 63% 29.57 in 10.0 mi South 19.6 mph 27.6 mph N/A   Clear
8:35 PM 60.8 °F - 50.0 °F 68% 29.58 in 10.0 mi South 21.9 mph 28.8 mph N/A   Clear
9:15 PM 60.8 °F - 50.0 °F 68% 29.57 in 10.0 mi South 21.9 mph 27.6 mph N/A   Clear
9:35 PM 59.0 °F - 50.0 °F 72% 29.57 in 10.0 mi South 26.5 mph 31.1 mph N/A   Clear
9:55 PM 59.0 °F - 50.0 °F 72% 29.56 in 10.0 mi South 24.2 mph 33.4 mph N/A   Partly Cloudy
10:15 PM 59.0 °F - 50.0 °F 72% 29.56 in 10.0 mi South 21.9 mph 31.1 mph N/A   Clear
10:55 PM 57.2 °F - 50.0 °F 77% 29.55 in 10.0 mi South 21.9 mph 28.8 mph N/A   Clear
11:15 PM 57.2 °F - 50.0 °F 77% 29.55 in 10.0 mi South 23.0 mph 31.1 mph N/A   Clear
11:35 PM 57.2 °F - 50.0 °F 77% 29.55 in 10.0 mi South 21.9 mph 28.8 mph N/A   Clear
11:55 PM 57.2 °F - 50.0 °F 77% 29.54 in 10.0 mi South 25.3 mph 31.1 mph N/A   Clear